Wind_Speed
20 18 12 4 1 2 2 1 2 4 3 1 1 3 7 5 3 3 13 11 18 16 15 14 14 13 12 12 13 14 13 14 15 15 14 14 13 12 11 12 12 12 12 10 10 9 8 8 9
20 14 3 2 2 2 1 4 6 4 8 11 9 5 4 4 4 11 12 20 18 18 16 15 14 13 12 12 12 13 13 13 15 14 14 13 12 10 10 11 11 10 10 10 9 7 7 9 6
11 4 2 2 1 1 3 6 6 8 12 4 5 6 4 3 7 12 16 22 20 17 16 15 14 13 12 12 12 13 12 12 12 13 13 12 10 10 9 9 9 8 7 7 7 6 5 6 5
6 2 3 3 5 2 3 8 5 10 4 7 10 9 5 4 3 10 26 24 22 18 16 13 13 13 13 12 11 11 11 11 11 11 10 10 9 7 7 7 7 6 5 5 5 5 3 2 3
3 1 4 4 4 0 1 9 12 10 4 6 2 4 4 3 14 26 26 24 22 19 15 14 12 13 12 11 11 11 10 11 10 8 8 7 7 7 6 5 3 3 2 2 2 1 2 4 4
3 2 4 5 7 4 5 10 7 6 9 7 6 6 3 14 27 27 24 23 20 20 18 14 12 13 11 10 10 9 9 10 8 7 7 6 5 5 5 4 2 0 1 1 2 1 1 4 5
3 4 2 3 5 3 6 3 4 5 9 4 13 4 3 13 23 24 23 21 20 18 16 15 12 11 11 10 9 9 9 9 8 4 5 3 3 3 3 3 2 1 2 2 2 1 2 6 3
3 3 6 5 3 4 3 1 5 5 4 14 10 6 7 17 23 24 21 19 19 17 15 15 12 12 12 10 8 8 8 7 6 3 1 1 1 2 1 1 2 2 1 1 2 3 4 3 1
3 3 5 7 4 4 8 5 6 5 13 5 6 5 17 26 26 24 20 18 17 15 15 15 13 12 11 10 9 8 7 5 3 3 5 3 2 4 5 6 4 3 2 3 4 2 2 2 1
3 3 7 18 12 4 10 8 11 6 11 3 7 15 25 23 25 20 16 16 17 16 16 16 14 13 12 10 9 7 5 5 3 4 5 6 7 7 5 4 3 2 2 3 3 1 2 5 1
5 4 7 11 17 9 8 10 12 9 9 6 19 20 18 21 20 20 18 25 23 19 17 17 15 14 12 10 9 8 6 5 4 5 6 7 9 9 7 7 4 2 4 2 2 3 2 4 5
4 13 8 9 14 10 9 6 13 10 5 12 17 25 18 16 15 20 19 19 21 21 18 17 15 14 12 9 7 7 6 5 5 8 8 6 7 8 8 8 9 8 5 0 3 3 2 3 5
6 4 7 7 16 12 8 13 9 8 5 16 19 19 17 15 17 21 24 24 23 22 19 17 15 14 11 8 7 5 6 5 4 5 7 9 9 9 7 8 9 7 5 5 5 4 3 1 9
5 5 2 10 13 7 9 4 6 2 10 17 21 18 15 15 20 18 19 22 24 23 20 17 17 14 12 11 8 5 5 5 5 6 8 10 8 8 10 9 8 13 10 6 7 5 6 6 2
6 4 6 14 4 4 7 3 2 9 12 18 17 15 14 12 19 19 24 26 26 23 21 19 19 16 13 14 12 6 4 5 6 6 6 6 8 10 8 10 9 12 9 5 6 11 8 7 5
5 5 4 3 8 5 6 5 10 11 15 15 15 14 13 12 19 20 24 27 28 25 22 22 21 20 15 16 12 6 6 6 7 6 6 7 6 7 7 8 7 10 10 9 6 7 9 10 5
6 3 2 3 7 7 2 2 12 13 13 15 14 15 12 13 12 19 21 26 29 28 24 26 27 23 18 15 13 7 8 9 7 6 5 5 5 8 7 8 10 8 11 12 11 10 10 11 7
1 2 1 6 4 4 7 6 16 16 14 16 17 14 13 14 15 17 21 24 26 32 31 31 28 24 21 17 12 7 8 9 12 8 6 4 4 5 7 8 6 6 9 12 10 12 12 16 19
2 1 6 4 2 1 3 2 15 18 14 14 16 15 16 16 17 17 23 25 26 31 38 33 28 24 23 21 14 9 11 10 13 11 8 5 2 2 3 4 5 5 7 11 7 10 12 12 7
4 4 7 5 5 6 6 8 9 21 23 23 21 19 18 16 11 13 24 26 28 33 40 33 29 27 24 25 18 10 10 7 11 13 10 6 2 2 2 3 5 7 6 7 8 6 6 10 9
4 6 5 7 2 4 2 6 6 12 12 18 19 20 18 21 18 13 19 26 28 32 38 35 31 27 27 25 19 10 7 7 12 14 11 8 4 2 1 3 4 3 4 6 8 7 4 4 10
5 8 5 6 1 4 4 5 4 6 19 22 20 20 20 19 18 15 20 26 31 34 38 37 33 27 28 26 22 16 10 9 14 17 12 8 5 4 2 2 3 1 2 4 5 6 5 3 6
9 5 9 7 5 5 2 3 6 4 8 16 21 22 22 21 21 19 21 30 34 35 38 39 36 31 27 26 26 19 13 12 14 15 13 12 9 8 6 5 3 1 2 1 3 4 6 5 6
8 4 3 2 3 1 18 6 17 6 9 15 19 23 24 23 21 20 28 31 31 34 36 37 38 37 32 27 29 25 20 16 15 13 14 15 13 10 9 8 7 3 2 1 2 3 6 5 5
4 6 2 3 1 9 7 6 17 10 14 15 25 25 25 23 22 20 20 26 31 33 34 36 38 39 37 32 30 29 25 21 19 16 14 14 12 10 10 11 12 8 5 4 3 2 3 4 4
8 9 6 7 4 3 3 7 10 9 7 11 20 25 23 22 22 23 23 30 32 35 35 36 36 36 41 37 34 31 27 25 24 21 16 15 14 11 9 9 13 10 9 7 5 4 3 3 4
6 5 8 5 1 2 4 8 11 4 5 8 16 19 20 21 21 22 22 31 33 34 38 38 37 36 41 41 37 35 31 28 27 25 22 17 14 12 6 8 12 11 11 10 7 7 5 4 4
9 7 4 2 6 5 5 5 6 5 7 6 14 17 19 21 21 20 19 29 32 36 37 38 39 40 41 43 42 39 36 33 29 27 27 23 18 15 11 11 13 14 14 12 11 9 9 7 7
1 3 3 4 6 8 4 6 8 12 8 14 17 21 23 21 22 22 22 33 35 35 36 36 36 37 35 39 42 41 40 38 34 31 31 28 23 20 16 14 15 19 18 16 13 11 11 10 9
9 10 9 6 6 2 3 9 6 11 9 13 16 15 15 18 22 24 23 31 34 35 35 35 36 35 38 41 39 40 41 39 39 37 35 33 30 25 21 18 16 21 21 18 15 13 14 13 12
Wind_Direction
142 138 142 143 173 353 36 41 20 121 112 161 85 128 116 48 83 159 151 152 144 136 141 142 136 129 124 119 116 116 112 112 112 108 109 109 110 111 109 106 106 105 106 108 104 100 89 81 72
145 144 83 93 50 79 279 173 179 116 127 115 101 106 54 83 68 115 125 151 145 139 139 136 134 134 131 120 122 122 118 115 115 116 113 112 110 109 105 110 109 111 114 110 104 96 96 84 81
145 191 77 49 70 117 179 187 145 122 154 92 107 55 75 66 107 140 155 152 146 145 145 145 147 133 128 132 127 123 119 118 114 117 116 117 117 114 110 107 109 117 119 113 112 111 111 132 155
164 114 85 34 338 309 137 167 140 145 97 53 105 75 77 79 150 154 151 150 146 147 150 147 141 133 130 134 132 132 129 126 120 114 117 119 115 114 112 109 114 122 131 127 127 123 135 113 182
50 48 56 349 335 214 230 170 156 164 87 114 78 115 64 49 147 150 153 153 151 151 148 144 140 134 141 136 129 129 133 123 121 120 121 123 126 126 117 113 114 128 161 160 187 165 130 209 223
72 77 47 359 334 48 147 163 163 146 114 124 96 99 91 139 146 157 156 156 154 150 149 148 136 149 144 132 137 141 131 124 126 124 129 128 126 121 117 108 107 311 318 276 251 180 165 238 264
52 87 87 331 346 329 139 165 209 125 131 124 141 87 96 150 153 160 160 157 156 151 150 146 148 151 141 134 142 135 126 128 120 130 126 131 109 97 89 87 49 350 319 308 302 267 199 265 281
92 87 124 293 220 231 201 246 149 147 142 129 148 148 166 167 161 161 157 157 156 155 154 148 152 157 147 148 148 141 134 127 120 81 347 13 50 65 40 145 52 28 320 311 92 218 215 246 266
154 94 140 187 229 200 161 196 150 101 138 191 160 136 140 154 161 151 152 154 158 162 161 157 155 158 158 156 151 145 142 124 84 50 59 96 68 33 58 59 45 12 325 321 70 242 267 257 198
173 139 178 191 207 186 166 165 160 132 165 117 113 114 134 147 150 145 154 164 167 175 172 167 162 162 160 158 152 147 144 139 115 47 53 67 66 52 30 13 73 75 307 42 80 170 208 271 237
193 218 168 211 200 212 162 190 218 137 196 194 155 147 144 143 153 154 170 173 171 173 169 172 166 167 166 161 154 146 132 117 99 74 75 64 60 57 46 53 58 1 305 329 360 70 175 264 254
236 236 206 171 200 178 177 173 200 167 210 152 165 153 147 149 160 164 174 181 175 178 179 173 171 175 172 172 164 173 130 123 96 84 82 78 69 53 55 55 64 66 84 229 359 320 322 259 232
215 266 182 174 157 185 186 204 186 178 93 137 146 151 151 156 159 176 179 181 179 181 186 181 179 185 184 195 196 177 168 142 118 86 93 106 81 65 65 64 40 47 42 79 45 72 70 267 257
276 13 114 142 151 185 172 134 99 101 130 138 151 160 159 166 169 172 176 176 187 187 189 190 192 197 200 219 196 182 152 144 134 100 94 101 73 75 87 87 68 54 52 83 71 92 75 44 44
291 35 32 113 97 79 84 330 270 139 140 145 160 162 167 181 179 181 180 181 189 193 196 205 197 199 206 187 179 168 157 157 156 120 107 91 86 82 81 82 91 68 57 61 73 85 69 62 87
25 49 125 358 130 160 150 243 135 150 144 157 164 170 175 186 195 196 189 189 191 193 201 196 196 188 175 175 175 168 164 165 154 132 112 111 85 56 82 81 80 59 66 57 83 78 54 27 59
8 143 120 161 163 149 101 185 163 164 160 166 177 178 182 189 200 199 194 198 194 193 195 186 181 182 177 170 175 192 185 192 178 175 126 120 77 56 76 73 89 63 64 54 62 72 54 48 61
254 41 58 247 170 163 163 225 169 172 172 178 178 185 183 201 208 202 190 197 202 201 196 186 186 188 188 180 182 184 191 188 193 204 195 161 102 68 75 72 67 58 54 57 74 70 65 79 79
211 271 272 272 138 66 338 109 186 180 176 182 189 187 188 196 208 204 192 202 201 192 187 191 190 191 191 188 186 184 193 199 200 205 201 183 131 80 73 64 68 58 65 54 74 74 67 68 108
200 244 260 291 228 159 195 221 212 184 191 188 186 189 190 192 188 180 176 181 181 182 186 194 192 188 192 191 194 189 185 201 197 200 215 205 170 124 98 71 56 72 73 48 48 66 78 54 52
188 195 228 224 322 300 141 268 171 191 199 201 198 191 190 187 183 178 174 176 179 184 188 190 188 191 189 193 198 198 201 208 197 204 217 217 198 182 190 63 32 67 81 61 58 56 70 120 60
236 212 237 239 221 255 118 282 208 203 207 197 193 193 193 194 191 174 174 182 181 189 190 189 188 188 193 200 205 204 205 198 196 206 219 221 216 224 235 245 357 87 91 80 52 41 61 108 144
235 192 198 228 221 317 232 283 264 142 217 204 200 193 195 193 190 184 179 184 187 186 191 193 192 193 197 203 204 203 205 210 198 217 231 233 232 242 245 235 249 210 190 130 41 49 48 65 94
234 120 52 24 102 264 250 178 276 200 211 210 199 197 191 193 191 187 183 185 185 185 189 194 196 197 200 205 205 208 211 214 220 230 237 228 242 242 253 234 229 240 246 224 114 74 57 74 110
127 91 282 337 153 232 229 212 238 255 235 208 192 194 192 188 190 188 184 185 185 183 186 192 195 197 201 206 208 211 216 221 230 237 238 228 230 246 248 241 219 233 244 227 187 153 68 73 112
191 159 166 187 215 241 112 218 251 240 249 220 193 195 185 187 191 190 188 186 189 187 187 188 194 196 201 207 210 212 217 224 231 236 241 236 243 254 276 244 214 221 219 215 216 186 145 124 127
221 170 186 185 336 26 244 283 300 281 315 164 177 182 186 189 189 192 189 191 188 193 189 191 193 198 202 208 212 215 218 224 231 234 236 241 243 236 237 216 217 226 219 217 214 206 194 186 173
166 173 88 351 164 235 260 261 240 271 244 150 173 184 193 193 191 190 188 190 192 192 196 192 196 197 205 208 214 217 219 224 231 235 236 237 239 238 235 228 231 225 216 218 213 211 207 206 197
156 180 101 141 155 202 227 251 224 239 200 192 190 194 195 189 189 190 190 189 191 192 193 197 195 197 202 207 214 219 223 226 230 235 237 238 241 244 250 251 253 228 216 216 217 222 217 209 204
187 195 186 196 246 241 198 247 262 241 235 193 200 198 201 207 193 190 189 186 186 188 193 196 197 197 202 209 212 220 224 226 229 234 239 241 244 246 250 260 249 225 221 219 225 227 222 217 214
Height
763 764 765 767 778 781 787 783 774 778 779 771 770 776 788 788 795 813 795 797 801 803 805 807 807 808 809 810 810 809 809 809 809 810 811 811 811 812 812 813 815 816 817 816 816 816 816 816 817
763 765 767 771 783 794 794 775 777 773 772 769 771 778 786 797 789 794 798 800 803 805 806 808 809 809 810 811 810 810 810 811 811 812 813 813 814 814 814 815 817 817 817 817 818 817 816 816 815
764 766 772 779 789 798 796 772 772 768 767 769 778 776 783 797 793 793 795 800 803 806 807 808 810 811 812 812 812 812 813 813 814 814 815 815 815 815 816 817 818 818 818 819 818 819 816 814 813
763 766 774 786 791 775 773 769 769 772 770 770 776 789 786 791 794 795 798 801 804 806 809 810 811 812 813 813 814 814 814 816 817 818 817 817 818 818 818 819 818 818 818 819 819 819 817 816 813
764 766 787 795 787 773 767 763 766 775 775 778 778 795 795 792 794 798 801 803 804 806 809 812 812 813 813 814 815 816 816 817 818 818 819 819 819 819 819 820 819 818 817 818 817 818 817 814 813
768 770 797 804 792 775 767 763 765 769 773 780 785 790 798 795 796 800 803 804 805 806 810 812 814 813 814 816 816 816 817 819 819 819 819 819 820 819 820 821 819 818 818 817 816 817 818 815 812
772 782 801 796 788 788 771 763 771 771 776 783 779 797 798 797 798 802 804 806 807 809 810 812 814 815 816 818 817 818 819 820 820 819 820 821 821 820 820 820 820 818 818 817 818 817 818 815 815
769 779 799 794 793 789 771 767 766 770 777 775 777 795 802 796 799 803 806 807 809 811 811 813 815 816 818 818 818 819 820 821 821 820 821 822 821 821 820 819 820 818 818 817 818 815 817 816 817
764 789 798 794 789 772 765 769 764 765 776 774 776 779 782 793 800 804 807 808 811 813 812 814 815 818 819 819 819 820 821 822 821 822 822 822 821 822 820 820 819 819 817 817 821 817 818 817 818
772 787 776 754 753 757 758 765 766 772 777 778 779 780 786 793 799 803 806 808 811 813 813 815 816 818 819 819 820 820 821 823 822 822 823 823 822 822 821 821 820 819 818 820 821 817 818 818 820
764 774 754 750 749 748 758 762 759 770 782 776 777 781 787 792 798 802 805 806 807 812 813 815 817 819 820 821 821 821 823 823 824 824 824 823 824 823 822 822 821 821 820 820 822 821 818 819 820
766 748 746 745 745 752 759 755 760 763 764 761 770 772 782 791 797 801 804 807 809 811 814 816 818 820 821 822 822 823 825 824 824 824 825 825 825 825 824 823 822 821 821 821 821 821 821 820 820
751 740 736 735 741 747 748 757 760 763 761 763 774 780 785 791 797 800 803 806 810 812 814 817 819 820 822 822 823 823 826 826 826 825 826 827 827 826 826 825 823 823 822 822 821 820 821 820 820
740 739 737 737 742 748 758 761 760 769 766 769 775 782 787 791 794 799 803 805 809 812 814 817 819 820 822 823 824 825 827 827 827 827 827 828 829 828 828 828 826 824 823 822 822 822 821 820 819
740 747 744 744 752 760 761 779 771 768 770 775 780 784 789 793 795 796 799 803 808 812 815 817 819 820 823 823 825 827 828 828 828 829 829 830 830 830 829 829 829 828 826 824 824 823 822 821 820
756 762 775 756 754 758 764 792 777 773 775 782 783 786 789 793 794 797 799 802 807 811 814 817 819 821 822 824 826 828 829 829 830 830 830 831 831 830 830 831 831 830 829 827 825 824 823 821 819
776 786 775 766 749 755 763 778 774 770 776 782 785 786 789 791 794 796 799 801 805 809 812 816 818 820 822 824 827 828 829 830 830 831 831 832 832 832 831 832 831 831 831 829 827 825 824 822 820
787 782 774 777 756 754 769 772 770 769 775 779 781 784 787 791 789 793 797 800 803 807 810 814 817 820 821 824 827 828 829 829 831 832 833 833 833 833 832 832 832 832 832 830 829 828 826 825 822
769 774 781 765 750 759 768 768 769 765 773 779 779 780 783 784 785 790 795 798 800 804 808 812 815 818 820 822 825 827 829 829 830 832 833 834 834 834 833 833 833 833 833 832 831 830 828 827 827
771 777 780 764 753 761 768 769 757 760 760 761 766 770 774 779 782 786 791 794 798 801 806 810 813 816 818 821 824 827 828 828 829 831 833 834 834 834 834 834 833 833 833 833 832 831 830 829 828
774 781 776 774 756 755 764 771 762 756 753 757 757 758 763 767 773 782 787 790 795 799 803 807 810 813 816 819 823 825 826 827 829 831 832 833 834 834 835 834 834 834 834 833 832 832 830 830 831
783 760 759 765 773 788 757 800 765 757 750 748 753 757 760 763 766 773 781 786 790 795 801 804 807 810 814 817 820 823 825 825 826 829 831 832 834 834 835 835 835 834 834 833 832 831 831 830 830
765 749 760 760 772 772 765 788 759 756 761 752 746 746 751 755 758 765 773 778 784 791 796 801 804 808 811 815 818 821 823 824 826 828 829 831 832 834 835 835 835 835 834 834 833 832 831 830 830
740 754 762 766 785 809 763 786 756 764 748 739 734 736 739 746 751 756 766 775 780 785 791 797 801 804 808 812 816 819 822 824 826 826 827 829 831 833 834 834 835 835 835 834 833 833 832 831 831
750 778 812 812 815 796 762 782 752 724 715 715 721 722 728 734 745 751 759 767 773 778 784 791 796 799 804 808 812 816 819 822 823 824 825 827 829 831 832 832 833 834 835 834 834 833 833 832 832
762 774 809 819 816 791 772 783 744 711 709 701 703 710 719 728 735 741 748 758 767 771 778 784 790 795 800 804 808 812 816 819 820 822 823 825 827 829 830 829 831 832 833 834 834 834 834 833 833
751 773 758 784 783 798 781 749 719 706 703 701 704 711 718 724 729 735 744 752 759 767 770 777 783 790 794 799 804 808 812 815 816 819 821 823 825 828 828 829 830 831 832 833 833 833 834 834 833
738 741 777 793 804 807 787 766 752 719 712 710 711 711 712 715 723 730 738 746 753 759 767 771 777 783 788 794 799 803 807 810 813 816 817 820 823 825 827 828 829 830 830 831 831 832 832 832 832
745 754 756 769 780 785 796 775 725 714 705 706 702 700 699 705 711 719 726 735 744 752 760 766 771 778 784 788 793 798 802 806 809 811 813 816 820 822 824 825 827 827 828 828 829 830 830 830 830
728 742 746 768 775 779 776 752 700 698 694 694 693 694 697 701 698 705 716 726 735 743 752 759 765 771 776 781 787 792 797 801 804 806 808 811 814 818 820 822 823 824 825 826 826 826 826 827 828